Retour au catalogue

FENGYUN 1C DEB

ActifSSO
NORAD 35180·DEBRIS·🇨🇳 China

Lancé May 10, 1999 depuis Taiyuan Satellite Launch Center

Loading…

Prochains Passages (prochaines 24 heures)

TLE

VieillissantSource: Space-Track

Époque: Sep 7, 2026, 17:16 UTC

1 35180U 99025DNL 26250.71988923  .00002096  00000-0  89347-3 0  9995
2 35180  99.7566  63.5912 0481599  37.5480 325.8300 13.78149422 37350

Suivez FENGYUN 1C DEB en temps réel avec AllMySat

Download on the App Store